�������l�o���
Date,Time,MP-1(��Sv/h),MP-2(��Sv/h),MP-3(��Sv/h),MP-4(��Sv/h),MP-5(��Sv/h),MP-6(��Sv/h),MP-7(��Sv/h),MP-8(��Sv/h),����,����(m/s),���J
2019/03/16,00:00,0.754,1.108,0.764,1.414,1.005,0.436,0.771,0.732,�k��,4.9,��
2019/03/16,00:10,0.756,1.108,0.764,1.416,1.008,0.438,0.771,0.731,�k��,5.0,��
2019/03/16,00:20,0.755,1.109,0.764,1.416,1.005,0.436,0.771,0.732,�k��,5.5,��
2019/03/16,00:30,0.754,1.108,0.765,1.415,1.004,0.435,0.772,0.733,�k��,6.2,��
2019/03/16,00:40,0.753,1.110,0.764,1.416,1.005,0.434,0.774,0.732,�k��,4.4,��
2019/03/16,00:50,0.754,1.110,0.766,1.418,1.006,0.437,0.772,0.733,�k�k��,4.0,��
2019/03/16,01:00,0.753,1.104,0.765,1.413,1.005,0.434,0.774,0.732,�k�k��,4.7,��
2019/03/16,01:10,0.754,1.104,0.764,1.418,1.009,0.435,0.772,0.734,�k��,5.9,��
2019/03/16,01:20,0.755,1.107,0.763,1.415,1.009,0.436,0.774,0.733,�k��,6.4,��
2019/03/16,01:30,0.753,1.109,0.765,1.414,1.006,0.435,0.775,0.732,�k��,7.3,��
2019/03/16,01:40,0.754,1.110,0.766,1.415,1.006,0.433,0.772,0.732,�k��,8.5,��
2019/03/16,01:50,0.755,1.107,0.763,1.414,1.007,0.437,0.773,0.733,�k��,7.2,��
2019/03/16,02:00,0.754,1.108,0.765,1.414,1.006,0.435,0.776,0.733,�k��,6.3,��
2019/03/16,02:10,0.753,1.107,0.764,1.415,1.006,0.435,0.772,0.734,�k��,6.8,��
2019/03/16,02:20,0.755,1.108,0.762,1.417,1.007,0.435,0.774,0.733,�k��,4.9,��
2019/03/16,02:30,0.755,1.107,0.765,1.416,1.004,0.434,0.773,0.732,�k��,4.5,��
2019/03/16,02:40,0.755,1.107,0.765,1.417,1.007,0.433,0.775,0.734,�k��,5.1,��
2019/03/16,02:50,0.755,1.107,0.763,1.414,1.006,0.434,0.774,0.733,�k��,4.5,��
2019/03/16,03:00,0.753,1.108,0.761,1.416,1.007,0.435,0.774,0.733,�k��,4.6,��
2019/03/16,03:10,0.751,1.106,0.764,1.416,1.006,0.435,0.773,0.735,�k��,5.2,��
2019/03/16,03:20,0.756,1.108,0.762,1.417,1.006,0.434,0.773,0.733,���k��,5.7,��
2019/03/16,03:30,0.755,1.108,0.765,1.416,1.006,0.434,0.772,0.733,�k��,5.8,��
2019/03/16,03:40,0.752,1.109,0.763,1.416,1.007,0.434,0.772,0.733,�k�k��,6.3,��
2019/03/16,03:50,0.754,1.105,0.762,1.414,1.006,0.434,0.773,0.734,�k�k��,5.4,��
2019/03/16,04:00,0.754,1.110,0.763,1.414,1.007,0.434,0.773,0.734,�k�k��,4.6,��
2019/03/16,04:10,0.754,1.108,0.765,1.415,1.005,0.434,0.773,0.735,�k�k��,4.3,��
2019/03/16,04:20,0.753,1.108,0.762,1.416,1.006,0.436,0.772,0.732,�k�k��,4.2,��
2019/03/16,04:30,0.752,1.108,0.764,1.417,1.008,0.434,0.773,0.732,�k�k��,3.6,��
2019/03/16,04:40,0.754,1.107,0.761,1.414,1.007,0.434,0.772,0.734,�k��,4.2,��
2019/03/16,04:50,0.755,1.108,0.763,1.414,1.006,0.434,0.773,0.733,�k��,4.8,��
2019/03/16,05:00,0.752,1.107,0.764,1.416,1.006,0.434,0.771,0.734,�k��,6.0,��
2019/03/16,05:10,0.753,1.109,0.761,1.411,1.007,0.434,0.773,0.733,�k�k��,6.1,��
2019/03/16,05:20,0.753,1.107,0.763,1.416,1.005,0.435,0.772,0.732,�k��,7.0,��
2019/03/16,05:30,0.754,1.108,0.763,1.415,1.005,0.434,0.773,0.734,�k�k��,6.7,��
2019/03/16,05:40,0.755,1.108,0.764,1.418,1.005,0.434,0.771,0.734,�k��,7.4,��
2019/03/16,05:50,0.753,1.107,0.763,1.414,1.007,0.433,0.771,0.733,�k�k��,8.2,��
2019/03/16,06:00,0.754,1.108,0.762,1.414,1.005,0.435,0.771,0.733,�k��,7.5,��
2019/03/16,06:10,0.753,1.107,0.763,1.416,1.006,0.435,0.772,0.734,�k��,8.7,��
2019/03/16,06:20,0.754,1.107,0.763,1.415,1.007,0.436,0.772,0.733,�k��,8.1,��
2019/03/16,06:30,0.753,1.107,0.765,1.417,1.008,0.434,0.773,0.734,�k��,8.2,��
2019/03/16,06:40,0.753,1.109,0.765,1.418,1.007,0.434,0.773,0.732,�k��,8.3,��
2019/03/16,06:50,0.755,1.106,0.762,1.414,1.005,0.435,0.773,0.734,�k��,8.2,��
2019/03/16,07:00,0.753,1.106,0.762,1.413,1.006,0.434,0.772,0.733,�k��,7.3,��
2019/03/16,07:10,0.752,1.109,0.762,1.418,1.008,0.434,0.774,0.734,�k��,6.8,��
2019/03/16,07:20,0.755,1.107,0.764,1.416,1.008,0.434,0.772,0.733,�k��,6.7,��
2019/03/16,07:30,0.756,1.108,0.763,1.416,1.008,0.434,0.774,0.733,�k��,5.6,��
2019/03/16,07:40,0.756,1.109,0.763,1.416,1.007,0.434,0.774,0.735,�k��,5.4,��
2019/03/16,07:50,0.756,1.107,0.763,1.415,1.006,0.435,0.774,0.733,�k�k��,5.0,��
2019/03/16,08:00,0.755,1.112,0.765,1.418,1.007,0.435,0.773,0.734,�k�k��,5.3,��
2019/03/16,08:10,0.756,1.110,0.762,1.418,1.008,0.436,0.775,0.733,�k�k��,5.8,��
2019/03/16,08:20,0.757,1.106,0.762,1.416,1.007,0.435,0.776,0.735,�k�k��,5.4,��
2019/03/16,08:30,0.755,1.110,0.761,1.416,1.009,0.435,0.776,0.734,�k�k��,5.5,��
2019/03/16,08:40,0.756,1.112,0.764,1.419,1.007,0.436,0.776,0.734,�k�k��,4.7,��
2019/03/16,08:50,0.758,1.110,0.764,1.418,1.009,0.435,0.772,0.736,�k�k��,4.5,��
2019/03/16,09:00,0.756,1.110,0.764,1.416,1.011,0.434,0.773,0.735,�k�k��,4.4,��
2019/03/16,09:10,0.756,1.106,0.763,1.416,1.011,0.435,0.772,0.735,�k�k��,3.3,��
2019/03/16,09:20,0.758,1.104,0.765,1.419,1.012,0.435,0.772,0.735,�k�k��,4.6,��
2019/03/16,09:30,0.756,1.105,0.765,1.418,1.013,0.436,0.774,0.734,�k�k��,4.5,��
2019/03/16,09:40,0.758,1.110,0.766,1.418,1.011,0.436,0.772,0.736,�k�k��,4.7,��
2019/03/16,09:50,0.757,1.111,0.766,1.419,1.013,0.436,0.772,0.735,�k�k��,5.2,��
2019/03/16,10:00,0.757,1.112,0.766,1.420,1.013,0.437,0.773,0.734,�k�k��,6.2,��
2019/03/16,10:10,0.758,1.112,0.765,1.419,1.015,0.436,0.773,0.734,�k�k��,6.1,��
2019/03/16,10:20,0.757,1.105,0.766,1.421,1.015,0.435,0.773,0.734,�k�k��,6.6,��
2019/03/16,10:30,0.761,1.104,0.765,1.420,1.014,0.437,0.773,0.732,�k�k��,6.8,��
2019/03/16,10:40,0.760,1.109,0.765,1.421,1.015,0.436,0.773,0.732,�k�k��,6.5,��
2019/03/16,10:50,0.760,1.106,0.766,1.421,1.015,0.437,0.773,0.733,�k�k��,6.9,��
2019/03/16,11:00,0.758,1.103,0.766,1.420,1.015,0.438,0.773,0.732,�k�k��,8.2,��
2019/03/16,11:10,0.758,1.103,0.769,1.420,1.015,0.435,0.774,0.733,�k�k��,8.7,��
2019/03/16,11:20,0.759,1.113,0.768,1.419,1.016,0.436,0.775,0.733,�k�k��,7.9,��
2019/03/16,11:30,0.758,1.112,0.767,1.422,1.011,0.435,0.774,0.735,�k�k��,8.2,��
2019/03/16,11:40,0.762,1.114,0.768,1.419,1.014,0.434,0.773,0.732,�k�k��,8.8,��
2019/03/16,11:50,0.759,1.110,0.769,1.423,1.016,0.436,0.772,0.731,�k�k��,8.5,��
2019/03/16,12:00,0.760,1.106,0.767,1.422,1.016,0.435,0.776,0.733,�k�k��,8.2,��
2019/03/16,12:10,0.760,1.112,0.769,1.421,1.016,0.437,0.773,0.733,�k�k��,8.6,��
2019/03/16,12:20,0.761,1.116,0.767,1.420,1.019,0.436,0.776,0.734,�k�k��,9.0,��
2019/03/16,12:30,0.761,1.112,0.768,1.422,1.016,0.438,0.775,0.734,�k�k��,8.6,��
2019/03/16,12:40,0.763,1.114,0.767,1.420,1.017,0.437,0.775,0.735,�k�k��,8.4,��
2019/03/16,12:50,0.763,1.112,0.769,1.424,1.017,0.437,0.773,0.734,�k�k��,7.8,��
2019/03/16,13:00,0.761,1.112,0.769,1.422,1.016,0.436,0.773,0.733,�k�k��,8.3,��
2019/03/16,13:10,0.764,1.113,0.769,1.422,1.018,0.437,0.775,0.734,�k�k��,7.1,��
2019/03/16,13:20,0.762,1.112,0.767,1.421,1.018,0.436,0.775,0.735,�k,6.8,��
2019/03/16,13:30,0.761,1.111,0.767,1.422,1.018,0.438,0.774,0.733,�k�k��,6.8,��
2019/03/16,13:40,0.760,1.107,0.770,1.421,1.019,0.437,0.775,0.731,�k�k��,7.4,��
2019/03/16,13:50,0.763,1.106,0.768,1.422,1.017,0.438,0.773,0.733,�k�k��,8.5,��
2019/03/16,14:00,0.763,1.111,0.771,1.420,1.017,0.436,0.774,0.733,�k�k��,9.2,��
2019/03/16,14:10,0.765,1.117,0.770,1.423,1.020,0.438,0.774,0.733,�k,7.3,��
2019/03/16,14:20,0.761,1.114,0.771,1.422,1.019,0.438,0.775,0.733,�k,8.3,�L
2019/03/16,14:30,0.761,1.116,0.770,1.422,1.020,0.437,0.775,0.734,�k,7.9,�L
2019/03/16,14:40,0.763,1.115,0.769,1.424,1.019,0.437,0.774,0.733,�k,5.3,�L
2019/03/16,14:50,0.761,1.115,0.771,1.423,1.019,0.437,0.775,0.732,�k,5.4,��
2019/03/16,15:00,0.763,1.118,0.770,1.421,1.020,0.438,0.774,0.734,�k,6.4,�L
2019/03/16,15:10,0.762,1.119,0.772,1.425,1.018,0.436,0.773,0.737,�k,10.2,�L
2019/03/16,15:20,0.765,1.116,0.771,1.423,1.021,0.437,0.774,0.735,�k,9.6,�L
2019/03/16,15:30,0.765,1.118,0.771,1.423,1.021,0.438,0.775,0.736,�k,7.7,�L
2019/03/16,15:40,0.763,1.122,0.770,1.425,1.022,0.438,0.773,0.736,�k,7.7,��
2019/03/16,15:50,0.766,1.123,0.771,1.424,1.024,0.437,0.773,0.736,�k,8.4,��
2019/03/16,16:00,0.763,1.122,0.771,1.426,1.024,0.439,0.774,0.736,�k,6.8,��
2019/03/16,16:10,0.764,1.124,0.771,1.425,1.023,0.438,0.773,0.738,�k�k��,8.5,�L
2019/03/16,16:20,0.763,1.124,0.770,1.426,1.023,0.438,0.775,0.736,�k��,5.1,�L
2019/03/16,16:30,0.763,1.121,0.773,1.424,1.023,0.439,0.776,0.738,�k��,5.9,�L
2019/03/16,16:40,0.766,1.122,0.771,1.425,1.024,0.438,0.776,0.737,�k��,5.2,��
2019/03/16,16:50,0.765,1.124,0.770,1.425,1.023,0.437,0.773,0.736,�k��,5.6,��
2019/03/16,17:00,0.765,1.122,0.771,1.426,1.023,0.437,0.776,0.737,�k��,4.1,��
2019/03/16,17:10,0.764,1.122,0.772,1.425,1.020,0.439,0.774,0.736,�k��,5.5,��
2019/03/16,17:20,0.764,1.124,0.770,1.426,1.024,0.438,0.774,0.735,���k��,6.0,��
2019/03/16,17:30,0.763,1.123,0.772,1.424,1.022,0.438,0.775,0.736,�k��,6.5,��
2019/03/16,17:40,0.764,1.124,0.771,1.423,1.021,0.437,0.773,0.735,�k��,7.4,��
2019/03/16,17:50,0.762,1.120,0.772,1.424,1.023,0.436,0.772,0.735,�k��,6.5,��
2019/03/16,18:00,0.766,1.123,0.772,1.425,1.022,0.437,0.773,0.735,�k��,6.2,��
2019/03/16,18:10,0.763,1.121,0.770,1.424,1.021,0.437,0.772,0.736,�k��,6.2,��
2019/03/16,18:20,0.763,1.122,0.769,1.423,1.021,0.438,0.774,0.734,���k��,6.9,��
2019/03/16,18:30,0.763,1.121,0.769,1.424,1.021,0.436,0.773,0.735,���k��,7.7,��
2019/03/16,18:40,0.762,1.121,0.771,1.424,1.021,0.436,0.775,0.735,���k��,8.5,��
2019/03/16,18:50,0.762,1.120,0.770,1.425,1.021,0.436,0.774,0.734,���k��,8.9,��
2019/03/16,19:00,0.762,1.122,0.771,1.423,1.023,0.437,0.775,0.735,���k��,9.1,��
2019/03/16,19:10,0.761,1.122,0.770,1.425,1.020,0.436,0.774,0.734,���k��,8.6,��
2019/03/16,19:20,0.761,1.123,0.770,1.426,1.021,0.437,0.776,0.736,���k��,9.8,��
2019/03/16,19:30,0.760,1.123,0.770,1.425,1.020,0.438,0.777,0.734,���k��,9.2,��
2019/03/16,19:40,0.763,1.122,0.768,1.424,1.019,0.435,0.777,0.734,���k��,9.3,��
2019/03/16,19:50,0.762,1.121,0.769,1.423,1.018,0.435,0.776,0.735,���k��,9.2,��
2019/03/16,20:00,0.762,1.120,0.771,1.427,1.020,0.436,0.774,0.734,���k��,8.1,��
2019/03/16,20:10,0.763,1.124,0.770,1.427,1.021,0.436,0.776,0.735,�k��,8.0,��
2019/03/16,20:20,0.761,1.124,0.769,1.426,1.020,0.436,0.776,0.735,�k��,6.9,��
2019/03/16,20:30,0.761,1.123,0.769,1.428,1.021,0.437,0.776,0.734,�k��,8.5,��
2019/03/16,20:40,0.760,1.122,0.771,1.427,1.020,0.436,0.776,0.735,�k�k��,6.4,��
2019/03/16,20:50,0.761,1.122,0.768,1.425,1.021,0.436,0.776,0.733,�k�k��,4.8,��
2019/03/16,21:00,0.762,1.125,0.770,1.426,1.018,0.436,0.774,0.734,�k,4.9,��
2019/03/16,21:10,0.760,1.126,0.768,1.429,1.021,0.434,0.776,0.734,�k�k��,4.5,��
2019/03/16,21:20,0.761,1.122,0.768,1.429,1.021,0.435,0.776,0.734,�k�k��,3.9,��
2019/03/16,21:30,0.762,1.125,0.770,1.426,1.019,0.436,0.775,0.734,�k�k��,4.9,��
2019/03/16,21:40,0.761,1.123,0.768,1.428,1.019,0.436,0.776,0.734,�k��,4.0,��
2019/03/16,21:50,0.759,1.121,0.768,1.425,1.021,0.436,0.773,0.734,�k��,3.5,��
2019/03/16,22:00,0.762,1.123,0.770,1.424,1.019,0.435,0.773,0.734,���k��,4.3,��
2019/03/16,22:10,0.761,1.122,0.768,1.426,1.018,0.435,0.773,0.735,�k��,6.3,��
2019/03/16,22:20,0.760,1.124,0.769,1.425,1.019,0.435,0.774,0.734,�k��,5.9,��
2019/03/16,22:30,0.761,1.125,0.768,1.425,1.021,0.434,0.775,0.733,���k��,4.0,��
2019/03/16,22:40,0.760,1.121,0.768,1.425,1.019,0.436,0.773,0.734,���k��,3.8,��
2019/03/16,22:50,0.760,1.123,0.770,1.426,1.018,0.434,0.774,0.734,���k��,4.7,��
2019/03/16,23:00,0.761,1.121,0.769,1.425,1.019,0.435,0.774,0.734,��,4.4,��
2019/03/16,23:10,0.760,1.124,0.768,1.428,1.020,0.435,0.773,0.734,��,4.2,��
2019/03/16,23:20,0.761,1.120,0.768,1.425,1.018,0.434,0.774,0.734,��,4.5,��
2019/03/16,23:30,0.760,1.123,0.769,1.425,1.019,0.435,0.774,0.733,��,4.5,��
2019/03/16,23:40,0.760,1.123,0.768,1.424,1.020,0.436,0.772,0.735,���k��,6.4,��
2019/03/16,23:50,0.760,1.121,0.768,1.427,1.021,0.434,0.774,0.734,���k��,7.6,��
